Weather History for Saginaw, MI

Change the Weather History Date:

Friday, January 4, 2013

  Actual Average Record
Temperature  
Mean Temperature 30 °F 23 °F  
Max Temperature 34 °F 30 °F 57 °F (1997)
Min Temperature 26 °F 17 °F 10 °F (1999)
Degree Days  
Heating Degree Days 35    
Month to date heating degree days  
Since 1 July heating degree days  
Cooling Degree Days 0    
Month to date cooling degree days  
Year to date cooling degree days  
Moisture  
Dew Point 20 °F    
Average Humidity 69    
Maximum Humidity 81    
Minimum Humidity 60    
Precipitation  
Precipitation 0.00 in 0.07 in 0.41 in (1997)
Month to date precipitation 0.26  
Year to date precipitation 0.26  
Snow  
Snow 0.00 in - - ()
Month to date snowfall  
Since 1 July snowfall  
Snow Depth -    
Sea Level Pressure  
Sea Level Pressure 30.02 in    
Wind  
Wind Speed 19 mph (WSW)    
Max Wind Speed 29 mph    
Max Gust Speed 38 mph    
Visibility 10 miles    
Events      
T = Trace of Precipitation, MM = Missing Value Source: NWS Daily Summary

Daily Weather History Graph

Daily Weather History Graph

Search for Another Location

Airport:

Trip Planner

Search our weather history database for the weather conditions in past years. The results will help you decide how hot, cold, wet, or windy it might be!

Date:

Astronomy

Jan. 04, 2013 Rise Set
Actual Time 8:09 AM EST 5:13 PM EST
Civil Twilight 7:37 AM EST 5:46 PM EST
Nautical Twilight 7:01 AM EST 6:22 PM EST
Astronomical Twilight 6:26 AM EST 6:56 PM EST
Moon 12:00 AM EST (1/4) 11:37 AM EST (1/4)
Length of Visible Light 10h 09m
Length of Day
9h 04m
Waning Gibbous, 55% of the Moon is Illuminated
Jan 4
Waning Gibbous
Jan 4
Last Quarter
Jan 11
New
Jan 18
First Quarter
Jan 26
Full

Hourly Weather History & Observations

Time (EST) Temp. Windchill Dew Point Humidity Pressure Visibility Wind Dir Wind Speed Gust Speed Precip Events Conditions
12:53 AM 28.9 °F 16.5 °F 19.9 °F 69% 30.07 in 10.0 mi WSW 18.4 mph 24.2 mph N/A   Overcast
1:53 AM 28.9 °F 16.5 °F 19.9 °F 69% 30.06 in 10.0 mi WSW 18.4 mph 29.9 mph N/A   Overcast
2:45 AM 28.4 °F 16.2 °F 19.4 °F 69% 30.01 in 10.0 mi WSW 17.3 mph 26.5 mph N/A   Partly Cloudy
2:53 AM 28.0 °F 17.0 °F 19.9 °F 72% 30.04 in 10.0 mi WSW 13.8 mph 24.2 mph N/A   Partly Cloudy
3:53 AM 28.0 °F 15.7 °F 19.9 °F 72% 30.03 in 10.0 mi WSW 17.3 mph - N/A   Partly Cloudy
4:53 AM 28.0 °F 15.7 °F 19.9 °F 72% 30.01 in 10.0 mi WSW 17.3 mph 26.5 mph N/A   Clear
5:53 AM 27.0 °F 14.3 °F 19.9 °F 75% 30.00 in 10.0 mi SW 17.3 mph 26.5 mph N/A   Clear
6:53 AM 27.0 °F 13.9 °F 19.0 °F 72% 30.00 in 10.0 mi WSW 18.4 mph 28.8 mph N/A   Clear
7:53 AM 27.0 °F 14.3 °F 18.0 °F 69% 30.01 in 10.0 mi WSW 17.3 mph 24.2 mph N/A   Clear
8:53 AM 27.0 °F 13.2 °F 18.0 °F 69% 30.00 in 10.0 mi WSW 20.7 mph 29.9 mph N/A   Clear
9:53 AM 28.0 °F 14.6 °F 19.9 °F 72% 30.01 in 10.0 mi WSW 20.7 mph 31.1 mph N/A   Partly Cloudy
10:53 AM 30.0 °F 15.2 °F 19.9 °F 66% 29.98 in 10.0 mi SW 28.8 mph 38.0 mph N/A   Clear
11:53 AM 32.0 °F 18.9 °F 21.9 °F 66% 29.99 in 10.0 mi WSW 24.2 mph 33.4 mph N/A   Partly Cloudy
12:44 PM 33.8 °F 20.8 °F 21.2 °F 60% 29.95 in 10.0 mi WSW 26.5 mph 36.8 mph N/A   Mostly Cloudy
12:53 PM 33.1 °F 20.1 °F 21.9 °F 64% 29.97 in 10.0 mi West 25.3 mph 36.8 mph N/A   Scattered Clouds
1:53 PM 34.0 °F 21.5 °F 21.9 °F 61% 29.95 in 10.0 mi WSW 24.2 mph 32.2 mph N/A   Partly Cloudy
2:32 PM 33.8 °F 20.3 °F 21.2 °F 60% 29.93 in 10.0 mi West 28.8 mph 34.5 mph N/A   Mostly Cloudy
2:42 PM 33.8 °F 20.8 °F 21.2 °F 60% 29.93 in 10.0 mi West 26.5 mph 34.5 mph N/A   Partly Cloudy
2:53 PM 33.1 °F 20.1 °F 21.9 °F 64% 29.96 in 10.0 mi West 25.3 mph 34.5 mph N/A   Partly Cloudy
3:53 PM 32.0 °F 18.6 °F 21.0 °F 64% 29.98 in 10.0 mi West 25.3 mph 34.5 mph N/A   Clear
4:53 PM 30.9 °F 18.4 °F 21.0 °F 67% 30.01 in 10.0 mi West 20.7 mph - N/A   Clear
5:53 PM 30.0 °F 17.5 °F 21.0 °F 69% 30.04 in 10.0 mi WSW 19.6 mph - N/A   Clear
6:53 PM 28.9 °F 17.3 °F 21.0 °F 72% 30.06 in 10.0 mi WSW 16.1 mph - N/A   Clear
7:53 PM 28.9 °F 16.9 °F 21.0 °F 72% 30.10 in 10.0 mi West 17.3 mph - N/A   Clear
8:53 PM 28.0 °F 16.5 °F 21.0 °F 75% 30.12 in 10.0 mi West 15.0 mph - N/A   Clear
9:53 PM 27.0 °F 15.6 °F 21.0 °F 78% 30.12 in 10.0 mi WSW 13.8 mph - N/A   Clear
10:53 PM 26.1 °F 15.6 °F 21.0 °F 81% 30.14 in 10.0 mi WSW 11.5 mph - N/A   Clear
11:53 PM 26.1 °F 16.8 °F 21.0 °F 81% 30.17 in 9.0 mi WSW 9.2 mph - N/A   Clear